THOR AGENA B DEB, 2092

Orbit data source: Space-Track

THOR AGENA B DEB, 2092 is space debris in LEO originally from a launch on Mon, 29 Nov 1965 UTC launched from the Air Force Western Test Range (AFWTR). Debris objects in space refer to the collection of defunct objects orbiting the Earth. Examples of debris include non-operational satellites, rocket bodies, and fragments generated from explosions, collisions, or faulty payload assembly.

Loading next visibility...
Identifier
2092, 1965-098H
Orbit
LEO
Country
Flag of USUS
Related business
Manufacturer
Unknown
Mission
Spacecraft
Bus & Motor
Unknown
Mass
~1 kg wet, ~1 kg dry
Launch date (UTC)
1965-11-29 (60 years ago)
Launch vehicle
Unknown
Launch site
Air Force Western Test Range (AFWTR)
Object type
Payload
Rocket body
Debris
Shape & HBR
Ann Cyl, 0.1 m
Radar Cross Section
0.031 m², Small (<0.1 m²)

Expand to show TLE details & history
Last TLE update: 8 hours ago

TLE from 8 hours ago
0 THOR AGENA B DEB
1 02092U 65098H   25261.27816859  .00001490  00000-0  49237-3 0  9995
2 02092  79.8617 233.1386 1298665 304.9738  43.5979 12.34461217646868
Epoch: 2025-09-18T06:40Z
TLE epoch observation values (Epoch: 2025-09-18T06:40:33.766Z)
Latitude
-0.00003°
Longitude
135.55584°
Altitude
862.166 km
Speed
7.73 km/s
True Right ascension
15h 32m 33s
True Declination
0° 00' 00"
Sunlit
Object was in daylight at epoch
Visualization orbit readout
Latitude
Unknown
Longitude
Unknown
Altitude
Unknown
Speed
Unknown
Apparent Right ascension
Unknown
Apparent Declination
Unknown
Sunlit
N/A
Visualization observer readout
Local Sidereal Time
07:27:16
Azimuth
Unknown
Elevation
Unknown
Doppler factor
Unknown
Orbital elements
Apogee altitude
2,554.273 km
Perigee altitude
500.896 km
Semi-major axis
7,905.722 km
Eccentricity
0.12987
Inclination
79.8617°
RAAN
233.1386°
Arg. of periapsis
304.9738°
True anomaly
55.13929°
Mean anomaly
43.5979°
Eccentric anomaly
49.23338°
Mean motion
3.08767 °/min
Orbital period
116.59 mins
BSTAR
0.00049237
Loading maneuver chart data...
Computing Atmospheric mass density...
Loading historical data...
Loading historical data...
Loading historical data...
Loading historical data...
Loading historical data...
Loading historical data...
Loading historical data...

Documentation

Showing up to 5 results
|